sat.trackr.live / text

‹ back to catalog

STARLINK-35465

NORAD 65871 · 2025-223T

PAYLOAD ACTIVE UNKNOWN

§ Identity

Operator
Country
US
Launch date
2025-10-03
Launch site
AFWTR
Launch vehicle
Mass (kg)
RCS (m²)

Purposes: comms

External: N2YO · Heavens-Above · Gunter

§ Orbital elements

Epoch: 2026-05-25T03:48:24.778368Z

Period
94.10 min
Inclination
53.1615°
Eccentricity
0.0001423
Mean motion
15.30215842 rev/d
Perigee alt
474.2 km
Apogee alt
476.1 km
Semi-major
6,853.3 km
B*
4.6413e-4
RAAN
298.9638°
Arg perigee
89.8521°
Mean anomaly
270.2643°
Rev number
3,591

§ Raw data

STARLINK-354651 65871U 25223T   26145.15862012  .00013419  00000+0  46413-3 0  99922 65871  53.1615 298.9638 0001423  89.8521 270.2643 15.30215842 35911

JSON: /api/v1/satellites/65871 · /tle

For live sub-satellite position, see the globe view (requires WebGL).

§ Visibility from observer

Set your observer location to see the next 7 days of passes ≥ 10°. The values pass through the URL so the page stays shareable.

No JS? Fill the form by hand. The geolocation button needs JavaScript.